sat.trackr.live / text

‹ back to catalog

AMAZONIA 1

NORAD 47699 · 2021-015A

PAYLOAD ACTIVE UNKNOWN

§ Identity

Operator
Country
BRAZ
Launch date
2021-02-28
Launch site
SRILR
Launch vehicle
Mass (kg)
RCS (m²)

External: N2YO · Heavens-Above · Gunter

§ Orbital elements

Epoch: 2026-09-13T03:29:06.398880Z

Period
99.94 min
Inclination
98.4243°
Eccentricity
0.0001950
Mean motion
14.40845628 rev/d
Perigee alt
754.3 km
Apogee alt
757.1 km
Semi-major
7,133.8 km
B*
5.2635e-5
RAAN
327.5352°
Arg perigee
309.3447°
Mean anomaly
50.7568°
Rev number
29,131

§ Raw data

AMAZONIA 11 47699U 21015A   26256.14521295  .00000125  00000+0  52635-4 0  99962 47699  98.4243 327.5352 0001950 309.3447  50.7568 14.40845628291318

JSON: /api/v1/satellites/47699 · /tle

For live sub-satellite position, see the globe view (requires WebGL).

§ Visibility from observer

Set your observer location to see the next 7 days of passes ≥ 10°. The values pass through the URL so the page stays shareable.

No JS? Fill the form by hand. The geolocation button needs JavaScript.